Back to catalog

CZ-6A DEB

AlivePO
NORAD 54454·DEBRIS·🇨🇳 China

Launched Nov 11, 2022 from Taiyuan Satellite Launch Center

Loading…

Next Passes (next 24 hours)

TLE

FreshSource: Space-Track

Epoch: Sep 14, 2026, 05:10 UTC

1 54454U 22151GE  26257.21550789  .00001820  00000-0  15794-2 0  9991
2 54454  98.8339 169.0221 0233410 330.4169  28.3945 13.75695339191793

Track CZ-6A DEB in real time with AllMySat

Download on the App Store